Time,TemperatureF,DewpointF,PressureIn,WindDirection,WindDirectionDegrees,WindSpeedMPH,WindSpeedGustMPH,Humidity,HourlyPrecipIn,Conditions,Clouds,dailyrainin,SoftwareType,DateUTC
2013-06-02 00:02:00,65.5,54.2,28.57,West,270,0.0,0.0,67,0.00,,,0.00,open2300-1.11,2013-06-01 21:02:00,
2013-06-02 00:07:00,65.5,53.8,28.57,West,270,0.0,0.0,66,0.00,,,0.00,open2300-1.11,2013-06-01 21:07:00,
2013-06-02 00:17:00,65.5,53.8,28.55,West,270,0.0,0.0,66,0.00,,,0.00,open2300-1.11,2013-06-01 21:17:00,
2013-06-02 00:27:00,65.5,53.8,28.56,West,270,0.0,0.0,66,0.00,,,0.00,open2300-1.11,2013-06-01 21:27:00,
2013-06-02 00:37:00,65.5,54.2,28.54,West,270,0.0,0.0,67,0.00,,,0.00,open2300-1.11,2013-06-01 21:37:00,
2013-06-02 00:42:00,65.5,53.8,28.55,West,270,0.0,0.0,66,0.00,,,0.00,open2300-1.11,2013-06-01 21:42:00,
2013-06-02 00:52:00,65.5,54.2,28.55,West,270,0.0,0.0,67,0.00,,,0.00,open2300-1.11,2013-06-01 21:52:00,
2013-06-02 01:02:00,65.5,54.2,28.54,West,270,0.0,0.0,67,0.00,,,0.00,open2300-1.11,2013-06-01 22:02:00,
2013-06-02 01:07:00,65.5,54.2,28.55,West,270,0.0,0.0,67,0.00,,,0.00,open2300-1.11,2013-06-01 22:07:00,
2013-06-02 01:17:00,65.5,54.6,28.54,North,0,0.0,0.0,68,0.00,,,0.00,open2300-1.11,2013-06-01 22:17:00,
2013-06-02 01:22:00,65.3,54.5,28.54,North,0,0.0,0.0,68,0.00,,,0.00,open2300-1.11,2013-06-01 22:22:00,
2013-06-02 01:32:00,65.3,54.5,28.53,North,0,0.0,0.0,68,0.00,,,0.00,open2300-1.11,2013-06-01 22:32:00,
2013-06-02 01:43:00,65.3,54.5,28.52,North,0,0.0,0.0,68,0.00,,,0.00,open2300-1.11,2013-06-01 22:43:00,
2013-06-02 01:52:00,65.3,54.5,28.52,North,0,0.0,0.0,68,0.00,,,0.00,open2300-1.11,2013-06-01 22:52:00,
2013-06-02 01:57:00,65.3,54.5,28.51,North,0,0.0,0.0,68,0.00,,,0.00,open2300-1.11,2013-06-01 22:57:00,
2013-06-02 02:02:00,65.3,54.5,28.52,North,0,0.0,0.0,68,0.00,,,0.00,open2300-1.11,2013-06-01 23:02:00,
2013-06-02 02:07:00,65.3,54.5,28.52,North,0,0.0,0.0,68,0.00,,,0.00,open2300-1.11,2013-06-01 23:07:00,
2013-06-02 02:17:00,65.3,54.0,28.50,North,0,0.0,0.0,67,0.00,,,0.00,open2300-1.11,2013-06-01 23:17:00,
2013-06-02 02:27:00,65.3,54.5,28.49,North,0,0.0,0.0,68,0.00,,,0.00,open2300-1.11,2013-06-01 23:27:00,
2013-06-02 02:32:00,65.3,54.9,28.50,North,0,0.0,0.0,69,0.00,,,0.00,open2300-1.11,2013-06-01 23:32:00,
2013-06-02 02:37:00,65.1,54.7,28.49,North,0,0.0,0.0,69,0.00,,,0.00,open2300-1.11,2013-06-01 23:37:00,
2013-06-02 02:42:00,65.1,54.7,28.49,North,0,0.0,0.0,69,0.00,,,0.00,open2300-1.11,2013-06-01 23:42:00,
2013-06-02 02:52:00,65.1,54.7,28.49,North,0,0.0,0.0,69,0.00,,,0.00,open2300-1.11,2013-06-01 23:52:00,
2013-06-02 02:57:00,65.1,54.7,28.49,North,0,0.0,0.0,69,0.00,,,0.00,open2300-1.11,2013-06-01 23:57:00,
2013-06-02 03:07:00,65.1,54.7,28.48,North,0,0.0,0.0,69,0.00,,,0.00,open2300-1.11,2013-06-02 00:07:00,
2013-06-02 03:17:00,64.9,55.0,28.49,North,0,0.0,0.0,70,0.00,,,0.00,open2300-1.11,2013-06-02 00:17:00,
2013-06-02 03:22:00,64.9,55.0,28.50,North,0,0.0,0.0,70,0.00,,,0.00,open2300-1.11,2013-06-02 00:22:00,
2013-06-02 03:27:00,64.8,54.8,28.50,North,0,0.0,0.0,70,0.00,,,0.00,open2300-1.11,2013-06-02 00:27:00,
2013-06-02 03:32:00,64.8,54.8,28.50,North,0,0.0,0.0,70,0.00,,,0.00,open2300-1.11,2013-06-02 00:32:00,
2013-06-02 03:42:00,64.6,55.7,28.49,North,0,0.0,0.0,73,0.00,,,0.00,open2300-1.11,2013-06-02 00:42:00,
2013-06-02 03:47:00,64.6,55.7,28.49,North,0,0.0,0.0,73,0.00,,,0.00,open2300-1.11,2013-06-02 00:47:00,
2013-06-02 03:57:00,64.6,55.7,28.49,North,0,0.0,0.0,73,0.00,,,0.00,open2300-1.11,2013-06-02 00:57:00,
2013-06-02 04:07:00,64.2,55.4,28.48,North,0,0.0,0.0,73,0.00,,,0.00,open2300-1.11,2013-06-02 01:07:00,
2013-06-02 04:17:00,64.2,55.4,28.47,North,0,0.0,0.0,73,0.00,,,0.00,open2300-1.11,2013-06-02 01:17:00,
2013-06-02 04:27:00,64.0,55.6,28.47,North,0,0.0,0.0,74,0.00,,,0.00,open2300-1.11,2013-06-02 01:27:00,
2013-06-02 04:32:00,63.9,55.4,28.47,North,0,0.0,0.0,74,0.00,,,0.00,open2300-1.11,2013-06-02 01:32:00,
2013-06-02 04:42:00,63.7,55.2,28.47,North,0,0.0,0.0,74,0.00,,,0.00,open2300-1.11,2013-06-02 01:42:00,
2013-06-02 04:52:00,63.7,55.6,28.45,North,0,0.0,0.0,75,0.00,,,0.00,open2300-1.11,2013-06-02 01:52:00,
2013-06-02 04:57:00,63.7,55.6,28.45,North,0,0.0,0.0,75,0.00,,,0.00,open2300-1.11,2013-06-02 01:57:00,
2013-06-02 05:07:00,63.7,55.2,28.44,North,0,0.0,0.0,74,0.00,,,0.00,open2300-1.11,2013-06-02 02:07:00,
2013-06-02 05:12:00,63.7,55.6,28.44,North,0,0.0,0.0,75,0.00,,,0.00,open2300-1.11,2013-06-02 02:12:00,
2013-06-02 05:22:00,63.7,55.2,28.44,North,0,0.0,0.0,74,0.00,,,0.00,open2300-1.11,2013-06-02 02:22:00,
2013-06-02 05:27:00,63.5,55.4,28.45,North,0,0.0,0.0,75,0.00,,,0.00,open2300-1.11,2013-06-02 02:27:00,
2013-06-02 05:37:00,63.5,55.4,28.46,WSW,247,0.0,0.0,75,0.00,,,0.00,open2300-1.11,2013-06-02 02:37:00,
2013-06-02 05:42:00,63.3,55.6,28.47,WSW,247,0.0,0.0,76,0.00,,,0.00,open2300-1.11,2013-06-02 02:42:00,
2013-06-02 05:52:00,63.1,55.4,28.48,SW,225,4.7,4.7,76,0.00,,,0.00,open2300-1.11,2013-06-02 02:52:00,
2013-06-02 05:58:00,63.0,54.9,28.49,WSW,247,0.0,4.7,75,0.00,,,0.00,open2300-1.11,2013-06-02 02:58:00,
2013-06-02 06:07:00,62.6,54.1,28.49,SW,225,0.0,0.0,74,0.00,,,0.00,open2300-1.11,2013-06-02 03:07:00,
2013-06-02 06:12:00,62.4,54.0,28.49,SW,225,0.0,0.0,74,0.00,,,0.00,open2300-1.11,2013-06-02 03:12:00,
2013-06-02 06:17:00,62.4,54.0,28.50,WSW,247,0.0,0.0,74,0.00,,,0.00,open2300-1.11,2013-06-02 03:17:00,
2013-06-02 06:27:00,62.4,53.6,28.50,SW,225,0.0,2.7,73,0.00,,,0.00,open2300-1.11,2013-06-02 03:27:00,
2013-06-02 06:32:00,62.2,53.5,28.48,SW,225,0.0,0.0,73,0.00,,,0.00,open2300-1.11,2013-06-02 03:32:00,
2013-06-02 06:42:00,61.9,53.1,28.47,SW,225,0.0,0.0,73,0.00,,,0.00,open2300-1.11,2013-06-02 03:42:00,
2013-06-02 06:52:00,62.1,53.7,28.46,SW,225,0.0,0.0,74,0.00,,,0.00,open2300-1.11,2013-06-02 03:52:00,
2013-06-02 06:57:00,62.2,53.5,28.47,SW,225,0.0,0.0,73,0.00,,,0.00,open2300-1.11,2013-06-02 03:57:00,
2013-06-02 07:03:00,62.2,53.5,28.47,SW,225,0.0,0.0,73,0.00,,,0.00,open2300-1.11,2013-06-02 04:03:00,
2013-06-02 07:07:00,62.2,53.8,28.47,SW,225,0.0,0.0,74,0.00,,,0.00,open2300-1.11,2013-06-02 04:07:00,
2013-06-02 07:12:00,62.2,53.5,28.48,SW,225,0.0,0.0,73,0.00,,,0.00,open2300-1.11,2013-06-02 04:12:00,
2013-06-02 07:17:00,62.2,53.5,28.48,SW,225,0.0,0.0,73,0.00,,,0.00,open2300-1.11,2013-06-02 04:17:00,
2013-06-02 07:22:00,62.4,53.6,28.48,SW,225,0.0,0.0,73,0.00,,,0.00,open2300-1.11,2013-06-02 04:22:00,
2013-06-02 07:27:00,62.4,53.3,28.47,SW,225,0.0,0.0,72,0.00,,,0.00,open2300-1.11,2013-06-02 04:27:00,
2013-06-02 07:32:00,62.4,53.3,28.47,SW,225,0.0,0.0,72,0.00,,,0.00,open2300-1.11,2013-06-02 04:32:00,
2013-06-02 07:37:00,62.4,53.3,28.47,SW,225,0.0,0.0,72,0.00,,,0.00,open2300-1.11,2013-06-02 04:37:00,
2013-06-02 07:47:00,62.4,53.3,28.47,SW,225,0.0,0.0,72,0.00,,,0.00,open2300-1.11,2013-06-02 04:47:00,
2013-06-02 07:52:00,62.4,52.9,28.47,SW,225,0.0,0.0,71,0.00,,,0.00,open2300-1.11,2013-06-02 04:52:00,
2013-06-02 07:57:00,62.4,52.9,28.48,SW,225,0.0,0.0,71,0.00,,,0.00,open2300-1.11,2013-06-02 04:57:00,
2013-06-02 08:02:00,62.4,52.9,28.48,SW,225,0.0,0.0,71,0.00,,,0.00,open2300-1.11,2013-06-02 05:02:00,
2013-06-02 08:07:00,62.4,52.9,28.48,SW,225,0.0,0.0,71,0.00,,,0.00,open2300-1.11,2013-06-02 05:07:00,
2013-06-02 08:17:00,62.4,53.3,28.48,SW,225,0.0,0.0,72,0.00,,,0.00,open2300-1.11,2013-06-02 05:17:00,
2013-06-02 08:22:00,62.4,52.9,28.48,SW,225,0.0,0.0,71,0.00,,,0.00,open2300-1.11,2013-06-02 05:22:00,
2013-06-02 08:27:00,62.8,53.2,28.48,SW,225,0.0,0.0,71,0.00,,,0.00,open2300-1.11,2013-06-02 05:27:00,
2013-06-02 08:32:00,62.8,53.2,28.48,SW,225,0.0,0.0,71,0.00,,,0.00,open2300-1.11,2013-06-02 05:32:00,
2013-06-02 08:37:00,63.1,53.2,28.48,SW,225,0.0,0.0,70,0.00,,,0.00,open2300-1.11,2013-06-02 05:37:00,
2013-06-02 08:47:00,63.3,53.0,28.48,SW,225,0.0,0.0,69,0.00,,,0.00,open2300-1.11,2013-06-02 05:47:00,
2013-06-02 08:52:00,63.5,53.2,28.48,SW,225,0.0,0.0,69,0.00,,,0.00,open2300-1.11,2013-06-02 05:52:00,
2013-06-02 09:02:00,63.7,52.9,28.47,SW,225,0.0,0.0,68,0.00,,,0.00,open2300-1.11,2013-06-02 06:02:00,
2013-06-02 09:07:00,63.7,52.9,28.47,SW,225,0.0,0.0,68,0.00,,,0.00,open2300-1.11,2013-06-02 06:07:00,
2013-06-02 09:12:00,64.0,53.3,28.47,SW,225,0.0,0.0,68,0.00,,,0.00,open2300-1.11,2013-06-02 06:12:00,
2013-06-02 09:22:00,64.2,52.6,28.47,SW,225,0.0,0.0,66,0.00,,,0.00,open2300-1.11,2013-06-02 06:22:00,
2013-06-02 09:32:00,64.6,52.1,28.47,WSW,247,0.0,0.0,64,0.00,,,0.00,open2300-1.11,2013-06-02 06:32:00,
2013-06-02 09:37:00,64.6,52.1,28.47,WSW,247,0.0,0.0,64,0.00,,,0.00,open2300-1.11,2013-06-02 06:37:00,
2013-06-02 09:47:00,64.9,51.6,28.47,SW,225,0.0,0.0,62,0.00,,,0.00,open2300-1.11,2013-06-02 06:47:00,
2013-06-02 09:57:00,65.1,50.9,28.47,SW,225,0.0,0.0,60,0.00,,,0.00,open2300-1.11,2013-06-02 06:57:00,
2013-06-02 10:02:00,65.5,51.3,28.47,SW,225,4.2,4.2,60,0.00,,,0.00,open2300-1.11,2013-06-02 07:02:00,
2013-06-02 10:12:00,65.8,51.6,28.47,North,0,0.0,0.0,60,0.00,,,0.00,open2300-1.11,2013-06-02 07:12:00,
2013-06-02 10:17:00,66.0,51.3,28.47,WNW,292,0.0,0.0,59,0.00,,,0.00,open2300-1.11,2013-06-02 07:17:00,
2013-06-02 10:22:00,66.0,51.3,28.47,SW,225,0.0,0.0,59,0.00,,,0.00,open2300-1.11,2013-06-02 07:22:00,
2013-06-02 10:32:00,66.4,51.7,28.48,West,270,0.0,2.5,59,0.00,,,0.00,open2300-1.11,2013-06-02 07:32:00,
2013-06-02 10:37:00,66.4,51.7,28.48,SW,225,0.0,2.7,59,0.00,,,0.00,open2300-1.11,2013-06-02 07:37:00,
2013-06-02 10:42:00,66.6,52.3,28.48,WSW,247,2.9,6.3,60,0.00,,,0.00,open2300-1.11,2013-06-02 07:42:00,
2013-06-02 10:52:00,66.7,52.5,28.49,WSW,247,0.0,7.4,60,0.00,,,0.00,open2300-1.11,2013-06-02 07:52:00,
2013-06-02 11:02:00,66.7,52.5,28.49,SW,225,1.6,1.6,60,0.00,,,0.00,open2300-1.11,2013-06-02 08:02:00,
2013-06-02 11:07:00,66.9,52.1,28.49,SW,225,2.0,2.0,59,0.00,,,0.00,open2300-1.11,2013-06-02 08:07:00,
2013-06-02 11:12:00,66.9,51.7,28.49,SW,225,6.7,6.7,58,0.00,,,0.00,open2300-1.11,2013-06-02 08:12:00,
2013-06-02 11:17:00,67.3,51.5,28.48,SW,225,0.0,6.7,57,0.00,,,0.00,open2300-1.11,2013-06-02 08:17:00,
2013-06-02 11:27:00,67.8,50.0,28.49,SW,225,0.0,7.2,53,0.00,,,0.00,open2300-1.11,2013-06-02 08:27:00,
2013-06-02 11:32:00,68.0,49.2,28.49,WSW,247,5.4,5.4,51,0.00,,,0.00,open2300-1.11,2013-06-02 08:32:00,
2013-06-02 11:37:00,68.2,48.9,28.48,WSW,247,3.6,6.9,50,0.00,,,0.00,open2300-1.11,2013-06-02 08:37:00,
2013-06-02 11:42:00,68.5,48.0,28.49,WSW,247,5.4,7.4,48,0.00,,,0.00,open2300-1.11,2013-06-02 08:42:00,
2013-06-02 11:52:00,68.7,47.6,28.49,SW,225,3.8,6.7,47,0.00,,,0.00,open2300-1.11,2013-06-02 08:52:00,
2013-06-02 12:02:00,69.1,47.9,28.49,SW,225,0.9,5.8,47,0.00,,,0.00,open2300-1.11,2013-06-02 09:02:00,
2013-06-02 12:07:00,69.3,48.1,28.49,SW,225,5.1,5.1,47,0.00,,,0.00,open2300-1.11,2013-06-02 09:07:00,
2013-06-02 12:12:00,69.4,47.7,28.49,SW,225,4.0,7.6,46,0.00,,,0.00,open2300-1.11,2013-06-02 09:12:00,
2013-06-02 12:17:00,69.4,47.7,28.49,SW,225,0.0,4.0,46,0.00,,,0.00,open2300-1.11,2013-06-02 09:17:00,
2013-06-02 12:22:00,69.4,48.2,28.49,SW,225,6.0,6.0,47,0.00,,,0.00,open2300-1.11,2013-06-02 09:22:00,
2013-06-02 12:32:00,69.6,48.4,28.49,SSW,202,5.6,5.6,47,0.00,,,0.00,open2300-1.11,2013-06-02 09:32:00,
2013-06-02 12:42:00,69.8,48.6,28.49,SW,225,7.4,7.4,47,0.00,,,0.00,open2300-1.11,2013-06-02 09:42:00,
2013-06-02 12:47:00,70.0,48.7,28.49,SW,225,5.1,7.4,47,0.00,,,0.00,open2300-1.11,2013-06-02 09:47:00,
2013-06-02 12:52:00,70.0,48.7,28.49,SW,225,1.1,5.1,47,0.00,,,0.00,open2300-1.11,2013-06-02 09:52:00,
2013-06-02 12:57:00,70.3,48.5,28.49,SW,225,0.0,6.9,46,0.00,,,0.00,open2300-1.11,2013-06-02 09:57:00,
2013-06-02 13:07:00,70.3,48.5,28.49,SW,225,4.5,6.7,46,0.00,,,0.00,open2300-1.11,2013-06-02 10:07:00,
2013-06-02 13:13:00,70.7,49.4,28.49,North,0,0.0,4.5,47,0.00,,,0.00,open2300-1.11,2013-06-02 10:13:00,
2013-06-02 13:22:00,71.1,48.5,28.49,NW,315,0.0,0.0,45,0.00,,,0.00,open2300-1.11,2013-06-02 10:22:00,
2013-06-02 13:27:00,71.2,49.3,28.49,SW,225,2.5,2.5,46,0.00,,,0.00,open2300-1.11,2013-06-02 10:27:00,
2013-06-02 13:37:00,71.6,49.6,28.49,SW,225,2.5,2.5,46,0.00,,,0.00,open2300-1.11,2013-06-02 10:37:00,
2013-06-02 13:42:00,71.8,49.8,28.49,SW,225,0.0,2.5,46,0.00,,,0.00,open2300-1.11,2013-06-02 10:42:00,
2013-06-02 13:47:00,71.8,49.8,28.49,SW,225,3.8,3.8,46,0.00,,,0.00,open2300-1.11,2013-06-02 10:47:00,
2013-06-02 13:52:00,72.1,49.5,28.49,West,270,0.0,3.8,45,0.00,,,0.00,open2300-1.11,2013-06-02 10:52:00,
2013-06-02 14:02:00,72.1,50.1,28.49,WSW,247,0.0,2.5,46,0.00,,,0.00,open2300-1.11,2013-06-02 11:02:00,
2013-06-02 14:09:00,73.0,50.9,28.49,North,0,4.2,4.2,46,0.00,,,0.00,open2300-1.11,2013-06-02 11:09:00,
2013-06-02 14:17:00,73.9,49.9,28.49,WSW,247,2.2,7.2,43,0.00,,,0.00,open2300-1.11,2013-06-02 11:17:00,
2013-06-02 14:22:00,73.8,49.8,28.49,SW,225,0.0,6.7,43,0.00,,,0.00,open2300-1.11,2013-06-02 11:22:00,
2013-06-02 14:32:00,74.3,50.9,28.49,WSW,247,4.5,4.5,44,0.00,,,0.00,open2300-1.11,2013-06-02 11:32:00,
2013-06-02 14:38:00,75.0,50.9,28.49,WSW,247,4.9,5.4,43,0.00,,,0.00,open2300-1.11,2013-06-02 11:38:00,
2013-06-02 14:47:00,75.7,51.6,28.49,SW,225,2.2,2.2,43,0.00,,,0.00,open2300-1.11,2013-06-02 11:47:00,
2013-06-02 14:52:00,76.5,51.6,28.49,WSW,247,2.7,4.9,42,0.00,,,0.00,open2300-1.11,2013-06-02 11:52:00,
2013-06-02 14:57:00,76.6,51.2,28.49,SW,225,5.6,5.6,41,0.00,,,0.00,open2300-1.11,2013-06-02 11:57:00,
2013-06-02 15:02:00,76.6,51.2,28.50,North,0,0.0,5.6,41,0.00,,,0.00,open2300-1.11,2013-06-02 12:02:00,
2013-06-02 15:08:00,76.8,51.3,28.49,West,270,0.0,6.9,41,0.00,,,0.00,open2300-1.11,2013-06-02 12:08:00,
2013-06-02 15:17:00,77.2,51.7,28.49,SW,225,5.8,6.0,41,0.00,,,0.00,open2300-1.11,2013-06-02 12:17:00,
2013-06-02 15:22:00,76.8,51.3,28.49,SW,225,0.0,5.8,41,0.00,,,0.00,open2300-1.11,2013-06-02 12:22:00,
2013-06-02 15:32:00,76.3,50.9,28.49,WSW,247,5.4,7.2,41,0.00,,,0.00,open2300-1.11,2013-06-02 12:32:00,
2013-06-02 15:37:00,76.3,52.1,28.49,SW,225,0.0,5.4,43,0.00,,,0.00,open2300-1.11,2013-06-02 12:37:00,
2013-06-02 15:42:00,76.8,52.0,28.49,SW,225,6.9,6.9,42,0.00,,,0.00,open2300-1.11,2013-06-02 12:42:00,
2013-06-02 15:52:00,77.0,52.7,28.49,SW,225,5.4,5.4,43,0.00,,,0.00,open2300-1.11,2013-06-02 12:52:00,
2013-06-02 15:57:00,77.2,52.3,28.49,SW,225,3.1,7.4,42,0.00,,,0.00,open2300-1.11,2013-06-02 12:57:00,
2013-06-02 16:07:00,77.7,52.8,28.49,WSW,247,0.0,2.9,42,0.00,,,0.00,open2300-1.11,2013-06-02 13:07:00,
2013-06-02 16:12:00,78.1,53.1,28.50,WSW,247,1.3,2.0,42,0.00,,,0.00,open2300-1.11,2013-06-02 13:12:00,
2013-06-02 16:17:00,78.4,53.4,28.50,SW,225,3.8,3.8,42,0.00,,,0.00,open2300-1.11,2013-06-02 13:17:00,
2013-06-02 16:27:00,78.4,53.4,28.50,SW,225,0.0,0.0,42,0.00,,,0.00,open2300-1.11,2013-06-02 13:27:00,
2013-06-02 16:32:00,78.8,53.1,28.50,West,270,0.0,0.0,41,0.00,,,0.00,open2300-1.11,2013-06-02 13:32:00,
2013-06-02 16:42:00,78.6,53.0,28.51,WSW,247,0.0,2.5,41,0.00,,,0.00,open2300-1.11,2013-06-02 13:42:00,
2013-06-02 16:47:00,78.4,52.8,28.50,West,270,2.7,2.7,41,0.00,,,0.00,open2300-1.11,2013-06-02 13:47:00,
2013-06-02 16:52:00,77.7,52.2,28.51,SW,225,3.1,5.4,41,0.00,,,0.00,open2300-1.11,2013-06-02 13:52:00,
2013-06-02 17:22:00,78.8,53.1,28.50,WSW,247,0.0,5.6,41,0.00,,,0.00,open2300-1.11,2013-06-02 14:22:00,
2013-06-02 17:28:00,79.3,53.0,28.50,SW,225,0.0,0.0,40,0.00,,,0.00,open2300-1.11,2013-06-02 14:28:00,
2013-06-02 17:37:00,79.5,53.2,28.51,WSW,247,1.8,6.7,40,0.00,,,0.00,open2300-1.11,2013-06-02 14:37:00,
2013-06-02 17:42:00,79.7,52.6,28.51,SW,225,0.0,4.0,39,0.00,,,0.00,open2300-1.11,2013-06-02 14:42:00,
2013-06-02 17:47:00,80.2,53.0,28.50,SW,225,0.0,0.2,39,0.00,,,0.00,open2300-1.11,2013-06-02 14:47:00,
2013-06-02 17:57:00,80.2,52.3,28.50,WSW,247,2.9,2.9,38,0.00,,,0.00,open2300-1.11,2013-06-02 14:57:00,
2013-06-02 18:02:00,80.1,52.1,28.51,SW,225,7.2,7.2,38,0.00,,,0.00,open2300-1.11,2013-06-02 15:02:00,
2013-06-02 18:12:00,79.2,51.3,28.51,WSW,247,2.0,7.4,38,0.00,,,0.00,open2300-1.11,2013-06-02 15:12:00,
2013-06-02 18:22:00,78.4,49.9,28.51,WSW,247,0.0,5.4,37,0.00,,,0.00,open2300-1.11,2013-06-02 15:22:00,
2013-06-02 18:32:00,77.5,49.1,28.52,West,270,3.8,3.8,37,0.00,,,0.00,open2300-1.11,2013-06-02 15:32:00,
2013-06-02 18:42:00,76.8,47.7,28.52,NNE,22,0.0,7.6,36,0.00,,,0.00,open2300-1.11,2013-06-02 15:42:00,
2013-06-02 18:52:00,76.5,48.2,28.52,WSW,247,4.2,4.2,37,0.00,,,0.00,open2300-1.11,2013-06-02 15:52:00,
2013-06-02 18:57:00,76.6,47.5,28.52,North,0,0.0,7.6,36,0.00,,,0.00,open2300-1.11,2013-06-02 15:57:00,
2013-06-02 19:07:00,75.9,46.9,28.52,WNW,292,0.0,10.5,36,0.00,,,0.00,open2300-1.11,2013-06-02 16:07:00,
2013-06-02 19:12:00,75.6,46.6,28.53,WSW,247,3.8,5.6,36,0.00,,,0.00,open2300-1.11,2013-06-02 16:12:00,
2013-06-02 19:17:00,75.4,47.2,28.53,SW,225,1.8,3.8,37,0.00,,,0.00,open2300-1.11,2013-06-02 16:17:00,
2013-06-02 19:27:00,75.4,47.9,28.53,NNW,337,5.4,5.6,38,0.00,,,0.00,open2300-1.11,2013-06-02 16:27:00,
2013-06-02 19:32:00,75.2,47.0,28.54,WSW,247,4.5,5.4,37,0.00,,,0.00,open2300-1.11,2013-06-02 16:32:00,
2013-06-02 19:37:00,74.8,45.9,28.54,West,270,2.2,7.2,36,0.00,,,0.00,open2300-1.11,2013-06-02 16:37:00,
2013-06-02 19:47:00,74.1,45.3,28.54,West,270,8.1,8.1,36,0.00,,,0.00,open2300-1.11,2013-06-02 16:47:00,
2013-06-02 19:53:00,73.6,45.5,28.54,SW,225,1.8,8.1,37,0.00,,,0.00,open2300-1.11,2013-06-02 16:53:00,
2013-06-02 20:02:00,72.9,46.4,28.54,WSW,247,0.0,4.7,39,0.00,,,0.00,open2300-1.11,2013-06-02 17:02:00,
2013-06-02 20:07:00,72.5,46.1,28.54,NNE,22,0.0,4.5,39,0.00,,,0.00,open2300-1.11,2013-06-02 17:07:00,
2013-06-02 20:12:00,72.1,45.8,28.54,SW,225,6.9,6.9,39,0.00,,,0.00,open2300-1.11,2013-06-02 17:12:00,
2013-06-02 20:22:00,71.8,46.2,28.54,West,270,0.0,2.9,40,0.00,,,0.00,open2300-1.11,2013-06-02 17:22:00,
2013-06-02 20:27:00,71.4,45.9,28.55,NNW,337,0.0,4.5,40,0.00,,,0.00,open2300-1.11,2013-06-02 17:27:00,
2013-06-02 20:37:00,71.2,46.9,28.56,SW,225,0.0,0.0,42,0.00,,,0.00,open2300-1.11,2013-06-02 17:37:00,
2013-06-02 20:42:00,70.9,46.6,28.56,North,0,0.0,0.0,42,0.00,,,0.00,open2300-1.11,2013-06-02 17:42:00,
2013-06-02 20:47:00,70.9,46.6,28.56,North,0,0.0,0.0,42,0.00,,,0.00,open2300-1.11,2013-06-02 17:47:00,
2013-06-02 20:57:00,70.5,46.8,28.55,SW,225,0.0,0.0,43,0.00,,,0.00,open2300-1.11,2013-06-02 17:57:00,
2013-06-02 21:02:00,70.3,46.7,28.55,NNW,337,0.0,0.0,43,0.00,,,0.00,open2300-1.11,2013-06-02 18:02:00,
2013-06-02 21:08:00,70.2,47.1,28.56,West,270,0.0,2.0,44,0.00,,,0.00,open2300-1.11,2013-06-02 18:08:00,
2013-06-02 21:17:00,70.0,47.0,28.56,North,0,0.0,0.0,44,0.00,,,0.00,open2300-1.11,2013-06-02 18:17:00,
2013-06-02 21:27:00,69.6,47.2,28.57,SW,225,0.0,2.9,45,0.00,,,0.00,open2300-1.11,2013-06-02 18:27:00,
2013-06-02 21:37:00,69.3,46.9,28.57,SW,225,3.8,3.8,45,0.00,,,0.00,open2300-1.11,2013-06-02 18:37:00,
2013-06-02 21:42:00,69.1,47.3,28.57,WNW,292,4.0,4.0,46,0.00,,,0.00,open2300-1.11,2013-06-02 18:42:00,
2013-06-02 21:47:00,68.9,47.3,28.57,SW,225,7.4,7.4,46,0.00,,,0.00,open2300-1.11,2013-06-02 18:47:00,
2013-06-02 21:57:00,68.7,47.6,28.58,SW,225,0.0,6.3,47,0.00,,,0.00,open2300-1.11,2013-06-02 18:57:00,
2013-06-02 22:02:00,68.7,47.6,28.58,NNW,337,0.0,0.0,47,0.00,,,0.00,open2300-1.11,2013-06-02 19:02:00,
2013-06-02 22:12:00,68.5,47.4,28.59,WSW,247,0.0,4.5,47,0.00,,,0.00,open2300-1.11,2013-06-02 19:12:00,
2013-06-02 22:17:00,68.4,47.3,28.59,SW,225,0.0,0.0,47,0.00,,,0.00,open2300-1.11,2013-06-02 19:17:00,
2013-06-02 22:22:00,68.4,47.9,28.60,SW,225,0.0,0.0,48,0.00,,,0.00,open2300-1.11,2013-06-02 19:22:00,
2013-06-02 22:32:00,68.4,47.9,28.60,SW,225,1.6,1.6,48,0.00,,,0.00,open2300-1.11,2013-06-02 19:32:00,
2013-06-02 22:37:00,68.2,47.7,28.60,WSW,247,0.0,1.6,48,0.00,,,0.00,open2300-1.11,2013-06-02 19:37:00,
2013-06-02 22:42:00,68.2,47.7,28.60,NNW,337,0.0,0.0,48,0.00,,,0.00,open2300-1.11,2013-06-02 19:42:00,
2013-06-02 22:47:00,67.8,48.0,28.60,SW,225,0.0,0.0,49,0.00,,,0.00,open2300-1.11,2013-06-02 19:47:00,
2013-06-02 22:52:00,67.8,48.0,28.61,WSW,247,0.0,0.0,49,0.00,,,0.00,open2300-1.11,2013-06-02 19:52:00,
2013-06-02 22:57:00,67.6,47.8,28.61,WSW,247,0.0,0.0,49,0.00,,,0.00,open2300-1.11,2013-06-02 19:57:00,
2013-06-02 23:07:00,67.6,47.8,28.61,SW,225,0.0,0.0,49,0.00,,,0.00,open2300-1.11,2013-06-02 20:07:00,
2013-06-02 23:12:00,67.6,47.8,28.60,SW,225,0.0,0.0,49,0.00,,,0.00,open2300-1.11,2013-06-02 20:12:00,
2013-06-02 23:17:00,67.3,48.1,28.60,WSW,247,0.0,0.0,50,0.00,,,0.00,open2300-1.11,2013-06-02 20:17:00,
2013-06-02 23:22:00,67.3,48.1,28.61,WSW,247,0.0,0.0,50,0.00,,,0.00,open2300-1.11,2013-06-02 20:22:00,
2013-06-02 23:27:00,67.3,48.1,28.61,WSW,247,0.0,0.0,50,0.00,,,0.00,open2300-1.11,2013-06-02 20:27:00,
2013-06-02 23:32:00,67.3,48.1,28.60,WSW,247,0.0,0.0,50,0.00,,,0.00,open2300-1.11,2013-06-02 20:32:00,
2013-06-02 23:37:00,67.3,48.1,28.60,SW,225,0.0,0.0,50,0.00,,,0.00,open2300-1.11,2013-06-02 20:37:00,
2013-06-02 23:47:00,66.9,48.2,28.61,SW,225,0.0,3.8,51,0.00,,,0.00,open2300-1.11,2013-06-02 20:47:00,
2013-06-02 23:52:00,66.9,48.7,28.61,SW,225,0.0,0.0,52,0.00,,,0.00,open2300-1.11,2013-06-02 20:52:00,